Weather History for KFDY - July, 2013

Change the Weather History Date:

Saturday, July 20, 2013

  Actual Average Record
Temperature  
Mean Temperature 76 °F -  
Max Temperature 84 °F 82 °F 96 °F (1980)
Min Temperature 69 °F 64 °F 51 °F (1951)
Cooling Degree Days 12    
Growing Degree Days 26 (Base 50)    
Moisture  
Dew Point 70 °F    
Average Humidity 85    
Maximum Humidity 100    
Minimum Humidity 67    
Precipitation  
Precipitation 2.36 in - - ()
Sea Level Pressure  
Sea Level Pressure 29.85 in    
Wind  
Wind Speed 11 mph (SW)    
Max Wind Speed 30 mph    
Max Gust Speed 45 mph    
Visibility 7 miles    
Events Rain , Thunderstorm    
Averages and records for this station are not official NWS values.
T = Trace of Precipitation, MM = Missing Value Source: NWS Daily Summary

Daily Weather History Graph

Daily Weather History Graph

Search for Another Location

Airport or City:

Trip Planner

Search our weather history database for the weather conditions in past years. The results will help you decide how hot, cold, wet, or windy it might be!

Date:

Astronomy

Jul. 20, 2013 Rise Set
Actual Time 6:19 AM EDT 9:01 PM EDT
Civil Twilight 5:47 AM EDT 9:33 PM EDT
Nautical Twilight 5:07 AM EDT 10:13 PM EDT
Astronomical Twilight 4:21 AM EDT 10:59 PM EDT
Moon 7:04 PM EDT (7/20) 3:58 AM EDT (7/20)
Length of Visible Light 15h 46m
Length of Day
14h 42m
Waxing Gibbous, 93% of the Moon is Illuminated
Jul 20
Waxing Gibbous
Jul 22
Full
Jul 29
Last Quarter
Aug 6
New
Aug 14
First Quarter

Hourly Weather History & Observations

Time (EDT) Temp. Heat Index Dew Point Humidity Pressure Visibility Wind Dir Wind Speed Gust Speed Precip Events Conditions
12:53 AM 79.0 °F - 72.0 °F 79% 29.82 in 9.0 mi SSW 11.5 mph - N/A   Clear
1:53 AM 79.0 °F - 72.0 °F 79% 29.80 in 8.0 mi SSW 11.5 mph - N/A   Clear
2:53 AM 79.0 °F - 71.1 °F 77% 29.78 in 8.0 mi SW 11.5 mph - N/A   Clear
3:53 AM 79.0 °F - 71.1 °F 77% 29.77 in 9.0 mi SW 15.0 mph 20.7 mph N/A   Clear
4:53 AM 78.1 °F - 71.1 °F 79% 29.74 in 10.0 mi SSW 15.0 mph - N/A   Clear
5:22 AM 78.8 °F - 71.6 °F 78% 29.79 in 10.0 mi SW 11.5 mph 19.6 mph N/A Thunderstorm Scattered Clouds
5:53 AM 73.0 °F - 69.1 °F 87% 29.83 in 9.0 mi NW 21.9 mph 29.9 mph 0.00 in Rain , Thunderstorm Light Thunderstorms and Rain
6:04 AM 71.6 °F - 66.2 °F 83% 29.86 in 4.0 mi North 18.4 mph 36.8 mph 0.04 in Rain , Thunderstorm Light Thunderstorms and Rain
6:08 AM 71.6 °F - 66.2 °F 83% 29.87 in 2.5 mi NNW 26.5 mph 44.9 mph 0.10 in Rain , Thunderstorm Light Thunderstorms and Rain
6:10 AM 69.8 °F - 68.0 °F 94% 29.86 in 1.8 mi NW 23.0 mph 44.9 mph 0.16 in Rain , Thunderstorm Heavy Thunderstorms and Rain
6:40 AM 69.8 °F - 68.0 °F 94% 29.86 in 2.0 mi West 11.5 mph - 0.78 in Rain , Thunderstorm Heavy Thunderstorms and Rain
6:53 AM 70.0 °F - 68.0 °F 93% 29.83 in 2.5 mi SW 8.1 mph - 0.87 in Rain , Thunderstorm Heavy Thunderstorms and Rain
7:05 AM 69.8 °F - 68.0 °F 94% 29.86 in 3.0 mi WSW 3.5 mph - 0.04 in Rain , Thunderstorm Thunderstorms and Rain
7:53 AM 71.1 °F - 69.1 °F 93% 29.81 in 4.0 mi South 6.9 mph - 0.14 in Rain , Thunderstorm Rain
8:06 AM 71.6 °F - 69.8 °F 94% 29.88 in 2.0 mi SW 10.4 mph - 0.08 in Rain , Thunderstorm Heavy Thunderstorms and Rain
8:13 AM 71.6 °F - 69.8 °F 94% 29.89 in 0.8 mi West 29.9 mph 40.3 mph 0.45 in Rain , Thunderstorm Heavy Thunderstorms and Rain
8:31 AM 69.8 °F - 66.2 °F 88% 29.85 in 1.5 mi Calm Calm - 1.00 in Rain , Thunderstorm Heavy Thunderstorms and Rain
8:36 AM 69.8 °F - 66.2 °F 88% 29.86 in 3.0 mi West 8.1 mph - 1.00 in Rain , Thunderstorm Light Thunderstorms and Rain
8:41 AM 69.8 °F - 66.2 °F 88% 29.86 in 1.8 mi SW 4.6 mph - 1.07 in Rain , Thunderstorm Heavy Rain
8:51 AM 69.8 °F - 66.2 °F 88% 29.86 in 2.5 mi SW 4.6 mph - 1.11 in Rain , Thunderstorm Light Thunderstorms and Rain
8:53 AM 70.0 °F - 66.9 °F 90% 29.83 in 4.0 mi SW 4.6 mph - 1.12 in Rain , Thunderstorm Thunderstorms and Rain
9:14 AM 69.8 °F - 68.0 °F 94% 29.86 in 6.0 mi SSE 9.2 mph - 0.07 in Rain , Thunderstorm Light Rain
9:19 AM 69.8 °F - 69.8 °F 100% 29.87 in 8.0 mi SSE 6.9 mph - 0.07 in Rain , Thunderstorm Light Rain
9:34 AM 69.8 °F - 69.8 °F 100% 29.87 in 10.0 mi South 6.9 mph - 0.07 in   Overcast
9:53 AM 70.0 °F - 68.0 °F 93% 29.85 in 10.0 mi South 8.1 mph - 0.07 in Rain , Thunderstorm Light Rain
10:31 AM 71.6 °F - 69.8 °F 94% 29.87 in 6.0 mi SSW 6.9 mph - 0.03 in Rain Light Rain
10:49 AM 71.6 °F - 69.8 °F 94% 29.87 in 10.0 mi SSW 9.2 mph - 0.03 in   Overcast
10:53 AM 72.0 °F - 70.0 °F 93% 29.84 in 10.0 mi SW 9.2 mph - 0.03 in   Overcast
11:18 AM 73.4 °F - 69.8 °F 88% 29.87 in 10.0 mi SSW 9.2 mph - N/A   Scattered Clouds
11:28 AM 73.4 °F - 69.8 °F 88% 29.88 in 10.0 mi SW 12.7 mph - N/A   Mostly Cloudy
11:53 AM 75.9 °F - 70.0 °F 82% 29.84 in 10.0 mi SW 11.5 mph - N/A   Mostly Cloudy
12:36 PM 73.4 °F - 69.8 °F 88% 29.88 in 10.0 mi SSW 10.4 mph - N/A   Scattered Clouds
12:53 PM 75.0 °F - 70.0 °F 84% 29.85 in 10.0 mi SSW 8.1 mph - N/A   Clear
1:53 PM 79.0 °F - 72.0 °F 79% 29.84 in 10.0 mi WSW 10.4 mph - N/A   Scattered Clouds
2:03 PM 80.6 °F 85.4 °F 73.4 °F 79% 29.87 in 10.0 mi WSW 10.4 mph - N/A   Mostly Cloudy
2:27 PM 80.6 °F 85.4 °F 73.4 °F 79% 29.86 in 10.0 mi West 12.7 mph - N/A   Mostly Cloudy
2:53 PM 82.0 °F 87.4 °F 73.0 °F 74% 29.82 in 10.0 mi West 9.2 mph - N/A   Mostly Cloudy
3:15 PM 82.4 °F 88.2 °F 73.4 °F 74% 29.84 in 10.0 mi WSW 8.1 mph - N/A   Scattered Clouds
3:53 PM 84.0 °F 90.2 °F 73.0 °F 69% 29.81 in 10.0 mi WSW 10.4 mph - N/A   Partly Cloudy
4:53 PM 84.0 °F 89.6 °F 72.0 °F 67% 29.82 in 10.0 mi WSW 9.2 mph - N/A   Partly Cloudy
5:08 PM 75.2 °F - 64.4 °F 69% 29.86 in 1.5 mi NNW 10.4 mph 24.2 mph 0.12 in Rain Heavy Rain
5:18 PM 75.2 °F - 66.2 °F 73% 29.85 in 3.0 mi ENE 5.8 mph - 0.13 in Rain Light Rain
5:53 PM 80.1 °F 83.6 °F 71.1 °F 74% 29.82 in 10.0 mi South 4.6 mph - 0.13 in   Scattered Clouds
6:53 PM 80.1 °F 84.2 °F 73.0 °F 79% 29.82 in 10.0 mi SSW 3.5 mph - N/A   Partly Cloudy
7:53 PM 78.1 °F - 70.0 °F 76% 29.84 in 10.0 mi SW 4.6 mph - N/A   Clear
8:53 PM 75.0 °F - 70.0 °F 84% 29.85 in 10.0 mi SSW 4.6 mph - N/A   Clear
9:53 PM 73.9 °F - 70.0 °F 87% 29.88 in 10.0 mi West 6.9 mph - N/A   Partly Cloudy
10:53 PM 72.0 °F - 68.0 °F 87% 29.89 in 10.0 mi WSW 5.8 mph - N/A   Clear
11:53 PM 72.0 °F - 68.0 °F 87% 29.89 in 10.0 mi Calm Calm - N/A   Clear